Theta_e
313 314 316 316 316 317 318 318 319 333 339 339 338 338 338 338 337 336 336 333 331 327 326 327 326 322 322 319 312 307 304 303 302 302 301 301 300 301 300 300 299 299 298
310 310 313 316 317 318 318 318 317 319 337 339 338 338 338 338 338 337 335 333 332 328 328 328 326 324 319 313 311 308 304 303 302 301 299 298 299 299 299 299 299 298 297
311 311 308 312 314 316 317 318 319 318 325 338 339 338 338 336 335 335 334 333 333 330 329 329 328 324 318 314 310 306 306 304 299 300 300 297 299 294 296 298 298 296 295
308 308 308 308 312 314 316 315 316 318 320 332 338 337 335 334 335 336 335 333 333 331 329 329 327 322 317 313 309 304 305 305 301 297 297 296 296 294 294 295 296 295 294
306 307 305 308 311 311 312 313 314 315 317 321 335 336 334 334 334 334 334 333 330 327 328 327 324 318 314 310 306 305 304 303 302 300 297 295 295 294 292 292 292 294 294
305 304 308 311 313 314 314 314 313 312 314 317 321 329 333 333 332 331 328 328 326 323 324 323 318 313 309 307 304 304 303 301 301 299 297 295 294 292 292 290 289 289 291
306 309 311 312 314 314 314 314 315 316 316 314 318 322 330 333 333 331 326 323 321 318 318 316 311 309 307 304 304 302 300 299 299 297 295 294 294 293 292 291 289 288 290
304 309 311 310 311 311 311 313 314 315 316 316 314 320 326 329 328 327 326 322 317 315 315 310 307 306 306 303 303 300 299 297 296 295 293 293 292 292 291 291 290 287 287
308 311 310 310 311 312 312 312 315 316 316 315 314 320 326 325 326 324 322 318 315 314 310 307 305 305 304 302 301 298 297 295 294 293 293 292 291 291 291 290 290 288 286
309 308 308 310 312 312 311 312 315 317 317 313 317 323 324 323 323 321 318 315 313 311 308 305 304 303 302 300 297 296 295 294 292 292 292 291 291 290 290 290 289 288 287
308 308 308 310 312 312 311 313 315 319 318 317 321 322 320 320 317 316 316 314 311 309 305 303 302 301 298 296 295 294 292 292 291 291 291 290 290 290 289 289 288 288 287
313 313 309 309 311 312 313 315 317 319 318 320 319 316 316 315 312 312 312 311 307 303 300 300 298 297 296 295 294 294 292 291 290 290 290 290 290 289 289 288 288 287 287
312 312 307 310 310 312 314 316 317 317 317 315 313 312 310 310 307 306 305 303 300 298 297 297 296 295 294 292 291 291 290 290 290 290 290 290 289 289 288 288 287 287 287
311 310 309 310 310 312 309 308 307 307 307 308 307 305 304 303 303 301 299 297 296 295 296 295 294 293 295 294 291 290 291 291 291 290 289 289 288 288 287 287 287 287 286
311 311 311 309 307 304 302 301 301 301 301 300 298 297 297 297 296 296 295 294 294 294 294 294 292 290 290 290 291 294 292 290 288 287 287 287 287 287 288 288 287 287 286
312 310 309 304 300 300 298 299 299 300 299 297 296 296 296 295 293 292 292 293 294 294 294 293 294 293 291 290 289 288 287 286 285 286 286 286 286 286 287 287 287 287 287
306 310 307 299 297 297 296 296 296 296 295 294 294 293 292 292 292 292 292 293 293 294 293 292 292 290 291 291 289 286 285 284 285 285 285 285 285 285 285 285 286 286 286
305 307 298 294 295 295 294 294 294 293 292 292 292 292 292 292 292 293 293 293 293 294 294 292 291 289 288 288 287 286 284 284 284 284 284 284 284 284 285 286 286 286 285
295 294 294 293 293 293 292 292 292 292 292 292 293 293 293 294 294 294 293 292 293 292 291 289 289 288 288 286 285 285 285 284 284 284 284 284 284 284 285 286 286 286 285
295 294 294 294 294 293 293 293 293 293 293 293 294 294 294 294 293 293 292 292 292 289 286 286 286 286 285 285 286 285 285 285 284 284 284 283 284 284 285 286 285 283 283
295 294 294 294 294 294 294 293 293 292 292 293 293 293 293 294 294 293 292 290 287 286 286 286 285 285 284 284 285 285 285 285 284 284 283 282 283 285 285 284 283 282 283
296 295 295 295 294 294 293 292 290 291 292 292 293 293 293 292 289 287 287 286 286 286 285 285 284 284 284 284 285 285 285 284 283 283 282 283 284 284 283 282 281 282 282
297 296 295 294 294 294 294 291 290 293 293 291 289 289 288 287 287 287 286 286 285 285 284 284 283 283 282 281 281 282 283 283 283 283 284 284 282 281 280 280 281 280 279
298 296 295 293 292 293 293 294 293 293 289 287 287 287 287 286 286 286 286 285 284 284 283 282 281 280 280 281 282 283 282 283 283 283 282 280 279 279 279 278 279 279 278
292 290 289 289 289 291 292 292 291 288 287 287 287 287 286 285 285 285 284 284 282 282 281 281 281 281 281 281 283 283 283 283 283 282 280 278 277 277 277 278 278 278 278
288 287 287 287 287 287 287 287 287 288 288 287 286 285 285 285 284 284 284 283 283 282 282 282 281 281 281 282 282 282 282 282 281 279 277 277 277 277 277 277 277 277 277
Wind_Speed
15 19 25 23 26 35 37 33 29 33 39 35 32 32 36 38 36 38 37 41 38 36 33 33 34 30 28 25 21 17 14 9 6 6 3 5 6 6 7 8 9 7 6
10 9 21 27 23 21 25 34 31 30 38 38 40 33 37 39 40 40 41 42 41 39 37 38 35 31 28 25 24 22 16 7 8 5 4 1 3 6 7 9 9 7 6
17 16 11 23 28 28 26 23 23 25 36 36 35 31 32 27 33 36 39 42 42 43 42 39 37 34 31 29 26 23 19 13 8 7 4 2 3 0 3 8 9 8 6
13 13 11 14 26 29 25 23 23 23 24 36 35 37 33 22 31 41 42 43 43 44 44 40 38 36 33 29 27 23 19 14 11 8 5 2 3 3 1 3 9 5 6
9 10 8 13 21 21 21 22 21 21 24 28 40 39 31 32 37 37 41 43 40 39 43 40 38 36 33 29 27 24 19 16 14 9 7 5 4 4 3 2 3 7 10
8 8 5 4 7 8 6 1 12 20 22 24 34 42 34 31 33 35 38 38 38 37 38 37 36 34 33 30 27 22 20 17 13 12 10 7 4 4 4 2 4 6 9
4 4 5 4 2 2 4 5 7 12 14 21 28 36 38 43 43 43 41 40 39 39 37 36 36 35 32 29 25 22 19 15 14 12 11 8 7 6 5 4 3 2 4
4 6 3 4 3 1 6 9 12 17 20 23 26 32 39 43 41 43 43 42 40 40 38 36 35 33 30 27 24 21 19 18 14 12 9 8 6 5 5 4 3 2 3
4 4 5 5 3 4 8 10 13 18 22 26 27 30 36 38 42 42 40 39 38 37 35 34 33 31 30 27 25 22 18 15 13 12 9 7 6 5 5 5 6 5 2
7 7 8 10 8 7 10 14 15 18 23 24 26 30 35 39 42 43 39 36 35 34 34 35 34 31 28 26 24 20 18 14 12 9 7 6 5 5 5 6 8 9 9
9 12 10 18 14 9 9 14 19 20 21 20 24 28 33 36 35 37 35 34 34 33 34 36 33 30 27 24 21 16 13 11 10 8 7 5 5 6 6 8 9 11 13
16 17 13 14 15 7 10 15 20 21 18 22 26 28 30 29 29 29 30 30 31 30 31 32 31 28 24 19 16 14 12 8 7 5 7 5 6 8 8 9 11 13 15
14 17 7 9 8 5 7 11 12 9 14 21 23 26 28 29 26 25 27 28 29 29 29 31 28 25 21 18 14 8 8 4 2 4 8 6 8 10 10 11 13 14 16
11 12 5 3 7 5 5 5 2 4 12 19 23 25 25 25 25 27 30 30 30 30 30 27 27 23 19 16 12 9 5 0 6 8 7 8 10 10 10 11 14 15 15
12 11 5 4 2 5 8 10 9 8 11 14 22 26 27 29 28 29 30 31 32 31 30 29 25 23 19 17 13 5 4 7 8 7 7 8 8 9 11 13 13 14 18
9 7 5 4 3 4 10 13 13 15 16 18 20 26 29 29 28 30 32 32 32 29 28 26 22 15 10 9 7 6 4 4 5 6 6 8 9 10 11 12 15 16 19
12 8 1 3 5 7 10 16 19 18 21 21 23 24 27 31 29 33 34 34 32 28 26 22 20 16 12 9 5 5 4 2 4 5 7 8 8 10 14 15 15 17 18
5 5 4 9 12 14 16 21 21 23 25 24 21 24 27 31 32 33 31 28 26 22 20 17 12 11 10 9 6 2 1 3 5 6 7 10 12 14 14 17 19 18 19
9 9 13 17 19 18 19 24 23 23 24 22 23 26 32 32 29 30 26 24 24 19 16 15 12 10 8 6 2 2 3 5 7 7 8 11 14 15 16 19 21 21 22
12 13 14 16 19 17 21 24 21 21 20 20 25 27 26 28 27 26 25 20 19 15 13 13 11 8 6 4 1 4 6 10 10 9 12 15 15 16 17 20 21 19 24
11 13 15 15 13 14 17 17 18 18 19 20 22 21 22 25 24 22 20 19 16 15 13 11 8 6 4 4 2 5 8 7 9 15 19 19 16 16 19 20 22 21 22
10 12 14 15 14 15 18 18 20 19 21 20 23 23 23 22 20 20 19 17 15 13 11 10 9 6 4 2 3 4 7 10 14 16 18 17 17 18 20 18 17 19 19
8 11 13 14 14 14 18 19 19 20 22 22 18 22 19 18 18 18 16 14 11 9 8 7 5 2 2 3 5 8 9 11 14 16 17 15 15 16 15 17 16 15 17
10 11 12 12 13 13 16 22 21 22 20 18 19 20 19 17 15 13 11 11 9 8 6 5 2 3 6 7 8 11 14 15 16 15 9 11 13 13 13 14 15 17 17
11 12 13 14 14 17 18 18 19 17 18 20 21 19 17 16 15 13 10 9 8 6 5 4 4 5 8 8 9 12 15 15 11 13 15 16 16 18 17 18 19 20 19
13 15 14 16 16 17 17 17 17 19 22 22 19 18 16 14 12 12 12 9 6 5 5 4 4 6 5 7 10 12 12 11 11 10 11 15 16 16 17 18 22 22 20
Wind_Direction
262 264 264 257 255 251 254 254 238 218 210 205 199 201 206 211 213 216 219 214 211 209 209 207 198 199 202 201 197 191 187 176 186 166 167 179 192 188 205 212 219 222 237
257 241 246 255 255 254 251 250 245 235 210 207 214 208 210 210 212 216 216 214 211 209 206 206 202 203 200 197 197 196 181 177 179 175 138 133 231 220 222 219 221 220 214
255 256 247 248 252 247 248 248 247 237 224 210 208 206 205 200 202 210 212 211 212 209 206 209 206 203 202 200 200 199 196 176 178 191 165 123 218 313 230 217 208 202 207
246 250 248 242 248 251 250 255 256 248 228 219 212 209 209 195 203 211 212 210 212 211 208 209 207 204 201 203 200 199 202 196 175 160 173 171 140 169 293 209 201 195 197
243 258 250 250 257 262 260 255 255 258 244 232 218 217 213 205 210 209 205 208 211 211 207 206 205 201 199 199 200 198 204 204 188 177 167 177 176 180 139 250 269 243 250
253 243 244 113 111 100 103 218 264 269 267 244 227 222 213 204 197 197 200 202 204 205 205 204 201 198 196 194 198 197 199 200 195 192 191 186 169 190 178 195 255 255 288
159 142 147 153 140 32 357 333 318 291 287 274 242 222 212 210 206 201 195 195 197 196 196 199 198 197 195 193 192 189 190 193 187 188 188 191 198 195 201 206 237 271 294
324 308 228 187 172 25 344 323 310 304 285 267 260 239 217 209 203 202 200 196 192 194 195 197 197 195 191 189 186 187 189 188 180 184 189 181 188 200 222 224 196 313 283
270 232 271 267 273 319 325 319 307 303 288 273 250 235 219 204 205 203 199 195 195 197 192 194 195 195 190 186 185 183 181 186 181 178 178 181 191 209 222 237 239 194 263
329 300 284 256 264 293 316 318 315 302 297 271 242 220 212 210 206 199 194 194 194 193 191 193 192 188 186 184 181 176 181 182 181 176 177 189 207 229 244 258 261 249 241
281 285 264 258 257 271 306 320 313 308 296 250 215 208 202 202 197 192 190 192 190 192 191 190 185 183 177 175 171 168 172 183 178 181 196 213 233 235 253 262 259 263 266
308 299 284 248 241 280 316 314 310 301 277 224 198 192 187 188 188 184 179 183 182 181 177 178 175 170 168 166 166 164 177 193 194 201 227 213 246 256 258 268 273 276 281
291 291 248 243 262 289 305 313 312 279 207 191 182 175 172 169 172 168 164 166 163 161 160 165 159 158 155 153 149 161 163 170 214 262 274 281 263 264 275 279 277 280 283
320 293 226 228 291 3 7 13 3 186 165 169 163 155 155 154 153 151 148 145 148 147 152 153 149 151 158 144 142 171 144 220 274 248 264 275 270 274 282 283 284 285 286
329 344 34 34 2 64 63 65 76 102 121 128 126 123 125 122 123 125 128 133 139 140 144 141 139 144 148 150 156 142 232 218 245 270 274 278 280 288 286 289 293 299 297
296 326 18 51 29 84 98 99 88 92 110 106 102 107 112 113 118 117 123 132 135 137 138 142 146 140 128 121 119 169 213 246 270 291 298 294 296 297 291 289 291 293 297
283 282 89 117 92 91 99 89 86 90 90 92 97 101 110 107 108 117 121 122 128 135 134 135 146 148 150 159 166 205 230 272 293 308 310 319 319 310 304 303 300 296 296
297 225 125 101 95 99 90 90 90 87 88 83 89 99 102 105 113 120 124 129 133 133 135 140 144 141 145 159 145 214 308 330 319 311 325 328 326 326 319 311 307 306 303
21 60 94 99 91 89 94 94 91 93 94 95 101 107 117 120 127 127 127 132 127 136 145 146 146 162 161 162 172 286 334 328 340 345 329 328 327 324 314 310 312 313 309
43 65 75 80 86 97 110 106 110 109 107 114 117 125 130 129 125 128 138 140 128 137 144 151 155 145 158 170 199 265 311 328 327 322 330 331 321 316 314 314 321 321 316
63 73 80 86 93 108 108 98 93 86 96 105 118 127 132 130 129 131 131 131 144 153 151 143 134 142 147 174 253 336 318 319 332 330 326 326 323 317 318 316 315 312 309
70 81 82 81 89 93 97 90 85 102 119 122 121 122 120 119 130 140 139 142 149 141 133 130 125 129 135 52 19 356 338 333 328 323 320 322 319 321 317 313 310 308 309
102 93 94 90 92 111 123 100 107 124 126 122 122 126 126 131 137 132 133 134 140 136 123 125 128 120 351 336 335 345 344 331 323 319 316 319 321 318 313 314 314 315 322
114 110 106 93 88 109 123 122 131 132 123 124 129 129 128 127 126 125 128 132 131 121 117 112 95 19 4 359 1 346 338 336 325 326 326 324 322 320 319 324 333 335 329
108 107 107 108 111 118 125 132 133 133 130 131 127 127 131 131 126 118 109 107 94 88 93 76 43 23 9 1 338 333 329 327 331 319 322 331 337 336 337 336 335 333 328
116 112 115 115 119 124 131 143 149 152 144 137 139 139 137 133 127 120 109 89 83 64 53 41 15 351 334 332 331 326 327 334 329 326 337 332 334 329 328 327 326 328 326